Location: Unspecified
(0.0000°N, 0.0000°E)
Time: 10:51:57
(UTC+00:00)

A-11 Canister half - Pass Details

Date: 03 August 2021
Orbit: 1526 x 1683 km, 47.3° (Epoch: 27 September)

Event Time Altitude Azimuth Distance (km) Brightness Sun altitude
Rises 19:57:43 0° 312° (NW) 4,753 12.6 -26.5°
Reaches altitude 10° 20:00:52 10° 309° (NW) 3,750 11.9 -27.3°
Maximum altitude 20:10:09 62° 231° (SW) 1,699 9.2 -29.5°
Enters shadow 20:13:54 38° 168° (SSE) 2,168 9.5 -30.3°
